Find Kosmos-203

NORAD ID: 3129 Int'l Des: 1968-011 Owner: OKB10 Country: SU operational
LEOCIRCULAR

Live Position

Loading 3D Globe...

About Kosmos-203

Description loading...

Upcoming Passes

Passes for default location (London). Set your location on the main map for personalized predictions.

Altitude History

Loading altitude history...

Two-Line Element Set

1 3129U 68011A 26105.51485468 .00000100 00000-0 30468-3 0 9991
2 3129 74.0528 187.8680 0011868 33.8811 337.7506 13.18302618797725
Epoch: Apr 15, 2026 • Age: 19 hours

Current Status

Altitude 1199.8 km
Velocity 7.26 km/s
Sub-Earth Point 56.07°N, 30.47°E
Type other

Most Searched